Content
SEND FEEDBACK

Daily
Averages
Monthly
Summary
United States of America

ZUMBROTA, MINNESOTA


Home > North America > United States > Minnesota
Elevation: 99 feet     Latitude: 44 17N     Longitude: 092 40W

WEATHER
 
SELECT A DAY
Number of Records: 387,727;   Date Range: 10/9/98 - 9/20/14
 
SHARE

PRINT THIS DATA

[ ← Previous Day ]
WEATHER ALMANAC - FEBRUARY 13, 2013
[ Next Day → ]
[ °C ]   °F
Weather ElementAverageHighLow
Temperature28.7 °F37.4 °F (8:14 pm)17.6 °F (6:34 am)
Dewpoint26.5 °F35.6 °F (8:14 pm)17.6 °F (2:34 am)
Humidity92 %100 % (1:14 am)81 % (1:13 pm)
Barometer29.25 in29.79 in (12:33 am) (7:00 pm)
Wind Speed9 mph12.7 mph (11:54 am)
Weather ElementAverage
Visibility10 mi
Wind DirectionWSW (231.9 °)

Weather ElementTotal
Precipitation---
Heating Degree Days37.5 (Base 65)
Averaged from 70 records on February 13, 2013
WEATHER CONDITIONS BREAKOUT
WIND DIRECTION BREAKOUT
WEATHER BY HOUR - FEBRUARY 13, 2013
[ °C ]   °F
Local TimeTemperatureDewpointHumidityBarometerVisibilityWind DirectionWind SpeedGust SpeedPrecipitationEventsConditions
12:33 AM21.2 °F19.4 °F93 %29.79 in10.0 miSW (230°)5.8 mphScattered Clouds
12:54 AM21.2 °F19.4 °F93 %29.79 in10.0 miSW (230°)6.9 mphMostly Cloudy
1:14 AM19.4 °F19.4 °F100 %29.79 in10.0 miWSW (240°)5.8 mphScattered Clouds
1:34 AM19.4 °F19.4 °F100 %29.78 in10.0 miWSW (240°)5.8 mphScattered Clouds
2:13 AM19.4 °F19.4 °F100 %29.77 in10.0 miWSW (250°)4.6 mphScattered Clouds
2:34 AM19.4 °F17.6 °F93 %29.77 in10.0 miWSW (250°)5.8 mphScattered Clouds
2:54 AM19.4 °F17.6 °F93 %29.77 in10.0 miWest (260°)6.9 mphClear
3:14 AM19.4 °F17.6 °F93 %29.76 in10.0 miWSW (250°)6.9 mphScattered Clouds
3:33 AM19.4 °F17.6 °F93 %10.0 miWest (260°)8.1 mphScattered Clouds
3:54 AM19.4 °F19.4 °F100 %29.76 in10.0 miWest (260°)9.2 mphMostly Cloudy
4:14 AM19.4 °F17.6 °F93 %29.75 in10.0 miWest (260°)9.2 mphScattered Clouds
4:34 AM19.4 °F17.6 °F93 %29.75 in10.0 miWSW (240°)6.9 mphScattered Clouds
4:54 AM19.4 °F17.6 °F93 %29.75 in10.0 miWSW (240°)8.1 mphClear
5:14 AM19.4 °F17.6 °F93 %29.75 in10.0 miWSW (250°)6.9 mphScattered Clouds
5:34 AM19.4 °F17.6 °F93 %29.75 in10.0 miWest (260°)9.2 mphScattered Clouds
5:54 AM19.4 °F17.6 °F93 %29.74 in10.0 miWSW (250°)8.1 mphScattered Clouds
6:13 AM19.4 °F17.6 °F93 %29.74 in10.0 miWSW (250°)8.1 mphClear
6:34 AM17.6 °F17.6 °F100 %29.74 in10.0 miWest (260°)9.2 mphScattered Clouds
6:53 AM17.6 °F17.6 °F100 %29.73 in10.0 miWSW (250°)8.1 mphScattered Clouds
7:14 AM17.6 °F17.6 °F100 %29.73 in10.0 miWSW (250°)6.9 mphClear
7:34 AM19.4 °F17.6 °F93 %29.73 in10.0 miWSW (240°)4.6 mphClear
7:54 AM19.4 °F17.6 °F93 %29.73 in10.0 miWSW (240°)10.4 mphScattered Clouds
8:14 AM21.2 °F19.4 °F93 %29.72 in10.0 miWSW (240°)9.2 mphScattered Clouds
8:34 AM23.0 °F21.2 °F93 %29.72 in10.0 miWSW (250°)9.2 mphClear
8:54 AM24.8 °F21.2 °F86 %29.72 in10.0 miWSW (250°)10.4 mphScattered Clouds
9:14 AM24.8 °F21.2 °F86 %29.72 in10.0 miWSW (250°)10.4 mphScattered Clouds
9:34 AM24.8 °F21.2 °F86 %29.72 in10.0 miWSW (250°)10.4 mphScattered Clouds
9:54 AM24.8 °F23.0 °F93 %29.72 in10.0 miWSW (250°)10.4 mphMostly Cloudy
10:14 AM26.6 °F24.8 °F93 %29.72 in10.0 miWSW (250°)9.2 mphOvercast
10:34 AM26.6 °F24.8 °F93 %29.71 in10.0 miWSW (250°)9.2 mphOvercast
10:54 AM28.4 °F26.6 °F93 %29.71 in10.0 miWSW (240°)9.2 mphOvercast
11:14 AM30.2 °F26.6 °F86 %29.70 in10.0 miSW (230°)9.2 mphOvercast
11:34 AM30.2 °F26.6 °F86 %29.70 in10.0 miWSW (250°)10.4 mphOvercast
11:54 AM30.2 °F28.4 °F93 %29.70 in10.0 miWSW (240°)12.7 mphOvercast
12:14 PM32.0 °F28.4 °F87 %29.70 in10.0 miWSW (240°)11.5 mphOvercast
12:34 PM30.2 °F28.4 °F93 %29.69 in10.0 miWSW (240°)12.7 mphOvercast
12:54 PM32.0 °F28.4 °F87 %29.68 in10.0 miWSW (240°)11.5 mphOvercast
1:13 PM33.8 °F28.4 °F81 %29.68 in10.0 miWSW (240°)10.4 mphOvercast
1:34 PM33.8 °F30.2 °F87 %29.68 in10.0 miWSW (240°)10.4 mphOvercast
1:54 PM33.8 °F30.2 °F87 %29.67 in10.0 miSW (230°)11.5 mphOvercast
2:13 PM33.8 °F30.2 °F87 %29.66 in10.0 miSW (220°)10.4 mphOvercast
2:34 PM35.6 °F30.2 °F81 %29.65 in10.0 miSW (220°)9.2 mphScattered Clouds
2:54 PM35.6 °F30.2 °F81 %29.65 in10.0 miSSW (210°)10.4 mphClear
3:13 PM35.6 °F32.0 °F87 %29.64 in10.0 miSSW (200°)9.2 mphScattered Clouds
3:34 PM35.6 °F32.0 °F87 %29.64 in10.0 miSSW (200°)10.4 mphScattered Clouds
3:54 PM35.6 °F32.0 °F87 %29.64 in10.0 miSSW (200°)6.9 mphScattered Clouds
4:13 PM35.6 °F33.8 °F93 %29.63 in10.0 miSSW (200°)8.1 mphScattered Clouds
4:34 PM35.6 °F33.8 °F93 %29.64 in10.0 miSSW (210°)9.2 mphClear
4:54 PM35.6 °F33.8 °F93 %29.63 in10.0 miSSW (200°)6.9 mphClear
5:13 PM35.6 °F33.8 °F93 %29.64 in10.0 miSSW (210°)6.9 mphScattered Clouds
5:34 PM35.6 °F33.8 °F93 %29.63 in10.0 miSouth (190°)6.9 mphScattered Clouds
5:54 PM35.6 °F33.8 °F93 %29.62 in10.0 miSSE (160°)6.9 mphScattered Clouds
6:14 PM35.6 °F33.8 °F93 %29.62 in10.0 miSouth (170°)9.2 mphMostly Cloudy
6:34 PM35.6 °F33.8 °F93 %29.61 in10.0 miSouth (170°)9.2 mphOvercast
6:54 PM35.6 °F33.8 °F93 %29.60 in10.0 miSouth (170°)10.4 mphOvercast
7:14 PM35.6 °F33.8 °F93 %29.60 in10.0 miSouth (180°)10.4 mphOvercast
7:34 PM35.6 °F33.8 °F93 %29.59 in10.0 miSouth (190°)9.2 mphMostly Cloudy
7:53 PM35.6 °F33.8 °F93 %29.58 in10.0 miSouth (190°)8.1 mphDrizzle
8:14 PM37.4 °F35.6 °F93 %29.57 in10.0 miSSW (210°)11.5 mphLight Drizzle
8:34 PM37.4 °F35.6 °F93 %29.57 in10.0 miSW (220°)11.5 mphOvercast
8:53 PM35.6 °F33.8 °F93 %29.56 in10.0 miSW (230°)10.4 mphLight Drizzle
9:14 PM35.6 °F33.8 °F93 %29.56 in10.0 miWSW (240°)11.5 mphLight Drizzle
9:34 PM35.6 °F33.8 °F93 %29.56 in10.0 miWSW (240°)9.2 mphDrizzle
9:53 PM35.6 °F33.8 °F93 %29.55 in10.0 miSW (230°)9.2 mphOvercast
10:14 PM35.6 °F33.8 °F93 %29.55 in10.0 miWSW (240°)10.4 mphOvercast
10:34 PM35.6 °F33.8 °F93 %29.55 in10.0 miWest (260°)10.4 mphOvercast
10:53 PM35.6 °F33.8 °F93 %29.55 in10.0 miWSW (250°)9.2 mphOvercast
11:14 PM35.6 °F33.8 °F93 %29.54 in10.0 miWSW (250°)9.2 mphOvercast
11:33 PM35.6 °F33.8 °F93 %29.54 in10.0 miWest (260°)10.4 mphOvercast
11:54 PM35.6 °F33.8 °F93 %29.55 in10.0 miWest (270°)11.5 mphOvercast
Hourly data recorded from KTOB, located miles away from Zumbrota, Minnesota







STORIES FROM OUR PARTNERS